Year,Month,Day,Hour,Minute,Value (Times are PST for temperature in C)
2013,05,05,00,00,14.10
2013,05,05,00,01,14.10
2013,05,05,00,02,14.10
2013,05,05,00,03,14.10
2013,05,05,00,04,14.00
2013,05,05,00,05,14.00
2013,05,05,00,06,14.00
2013,05,05,00,07,14.00
2013,05,05,00,08,14.00
2013,05,05,00,09,13.90
2013,05,05,00,10,13.90
2013,05,05,00,11,13.90
2013,05,05,00,12,13.80
2013,05,05,00,13,13.80
2013,05,05,00,14,13.80
2013,05,05,00,15,13.80
2013,05,05,00,16,13.80
2013,05,05,00,17,13.80
2013,05,05,00,18,13.80
2013,05,05,00,19,13.70
2013,05,05,00,20,13.70
2013,05,05,00,21,13.70
2013,05,05,00,22,13.70
2013,05,05,00,23,13.70
2013,05,05,00,24,13.60
2013,05,05,00,25,13.60
2013,05,05,00,26,13.60
2013,05,05,00,27,13.60
2013,05,05,00,28,13.60
2013,05,05,00,29,13.50
2013,05,05,00,30,13.50
2013,05,05,00,31,13.50
2013,05,05,00,32,13.50
2013,05,05,00,33,13.40
2013,05,05,00,34,13.40
2013,05,05,00,35,13.40
2013,05,05,00,36,13.40
2013,05,05,00,37,13.40
2013,05,05,00,38,13.40
2013,05,05,00,39,13.40
2013,05,05,00,40,13.40
2013,05,05,00,41,13.40
2013,05,05,00,42,13.40
2013,05,05,00,43,13.30
2013,05,05,00,44,13.30
2013,05,05,00,45,13.30
2013,05,05,00,46,13.30
2013,05,05,00,47,13.30
2013,05,05,00,48,13.30
2013,05,05,00,49,13.30
2013,05,05,00,50,13.30
2013,05,05,00,51,13.30
2013,05,05,00,52,13.30
2013,05,05,00,53,13.30
2013,05,05,00,54,13.20
2013,05,05,00,55,13.20
2013,05,05,00,56,13.20
2013,05,05,00,57,13.20
2013,05,05,00,58,13.20
2013,05,05,00,59,13.10
2013,05,05,01,00,13.10
2013,05,05,01,01,13.10
2013,05,05,01,02,13.10
2013,05,05,01,03,13.10
2013,05,05,01,04,13.10
2013,05,05,01,05,13.10
2013,05,05,01,06,13.10
2013,05,05,01,07,13.20
2013,05,05,01,08,13.20
2013,05,05,01,09,13.20
2013,05,05,01,10,13.30
2013,05,05,01,11,13.30
2013,05,05,01,12,13.30
2013,05,05,01,13,13.30
2013,05,05,01,14,13.30
2013,05,05,01,15,13.30
2013,05,05,01,16,13.30
2013,05,05,01,17,13.30
2013,05,05,01,18,13.30
2013,05,05,01,19,13.30
2013,05,05,01,20,13.30
2013,05,05,01,21,13.30
2013,05,05,01,22,13.30
2013,05,05,01,23,13.30
2013,05,05,01,24,13.30
2013,05,05,01,25,13.30
2013,05,05,01,26,13.30
2013,05,05,01,27,13.30
2013,05,05,01,28,13.30
2013,05,05,01,29,13.40
2013,05,05,01,30,13.40
2013,05,05,01,31,13.40
2013,05,05,01,32,13.40
2013,05,05,01,33,13.40
2013,05,05,01,34,13.40
2013,05,05,01,35,13.40
2013,05,05,01,36,13.30
2013,05,05,01,37,13.30
2013,05,05,01,38,13.30
2013,05,05,01,39,13.30
2013,05,05,01,40,13.30
2013,05,05,01,41,13.20
2013,05,05,01,42,13.20
2013,05,05,01,43,13.20
2013,05,05,01,44,13.20
2013,05,05,01,45,13.10
2013,05,05,01,46,13.10
2013,05,05,01,47,13.10
2013,05,05,01,48,13.10
2013,05,05,01,49,13.10
2013,05,05,01,50,13.10
2013,05,05,01,51,13.20
2013,05,05,01,52,13.20
2013,05,05,01,53,13.20
2013,05,05,01,54,13.30
2013,05,05,01,55,13.30
2013,05,05,01,56,13.30
2013,05,05,01,57,13.30
2013,05,05,01,58,13.30
2013,05,05,01,59,13.30
2013,05,05,02,00,13.30
2013,05,05,02,01,13.30
2013,05,05,02,02,13.20
2013,05,05,02,03,13.20
2013,05,05,02,04,13.20
2013,05,05,02,05,13.10
2013,05,05,02,06,13.10
2013,05,05,02,07,13.10
2013,05,05,02,08,13.00
2013,05,05,02,09,13.00
2013,05,05,02,10,13.00
2013,05,05,02,11,13.00
2013,05,05,02,12,12.90
2013,05,05,02,13,12.90
2013,05,05,02,14,12.90
2013,05,05,02,15,12.90
2013,05,05,02,16,12.90
2013,05,05,02,17,12.90
2013,05,05,02,18,12.80
2013,05,05,02,19,12.80
2013,05,05,02,20,12.80
2013,05,05,02,21,12.80
2013,05,05,02,22,12.80
2013,05,05,02,23,12.80
2013,05,05,02,24,12.80
2013,05,05,02,25,12.90
2013,05,05,02,26,12.90
2013,05,05,02,27,12.90
2013,05,05,02,28,12.90
2013,05,05,02,29,12.90
2013,05,05,02,30,12.90
2013,05,05,02,31,12.90
2013,05,05,02,32,12.90
2013,05,05,02,33,12.80
2013,05,05,02,34,12.80
2013,05,05,02,35,12.80
2013,05,05,02,36,12.80
2013,05,05,02,37,12.80
2013,05,05,02,38,12.80
2013,05,05,02,39,12.80
2013,05,05,02,40,12.80
2013,05,05,02,41,12.80
2013,05,05,02,42,12.80
2013,05,05,02,43,12.80
2013,05,05,02,44,12.80
2013,05,05,02,45,12.80
2013,05,05,02,46,12.80
2013,05,05,02,47,12.80
2013,05,05,02,48,12.80
2013,05,05,02,49,12.80
2013,05,05,02,50,12.90
2013,05,05,02,51,13.10
2013,05,05,02,52,13.40
2013,05,05,02,53,13.70
2013,05,05,02,54,13.90
2013,05,05,02,55,14.10
2013,05,05,02,56,14.30
2013,05,05,02,57,14.50
2013,05,05,02,58,14.60
2013,05,05,02,59,14.70
2013,05,05,03,00,14.90
2013,05,05,03,01,15.00
2013,05,05,03,02,15.10
2013,05,05,03,03,15.20
2013,05,05,03,04,15.30
2013,05,05,03,05,15.30
2013,05,05,03,06,15.40
2013,05,05,03,07,15.40
2013,05,05,03,08,15.40
2013,05,05,03,09,15.50
2013,05,05,03,10,15.50
2013,05,05,03,11,15.60
2013,05,05,03,12,15.60
2013,05,05,03,13,15.70
2013,05,05,03,14,15.70
2013,05,05,03,15,15.70
2013,05,05,03,16,15.70
2013,05,05,03,17,15.80
2013,05,05,03,18,15.80
2013,05,05,03,19,15.80
2013,05,05,03,20,15.90
2013,05,05,03,21,15.90
2013,05,05,03,22,15.90
2013,05,05,03,23,15.90
2013,05,05,03,24,16.00
2013,05,05,03,25,15.90
2013,05,05,03,26,15.90
2013,05,05,03,27,15.90
2013,05,05,03,28,15.90
2013,05,05,03,29,15.80
2013,05,05,03,30,15.80
2013,05,05,03,31,15.80
2013,05,05,03,32,15.80
2013,05,05,03,33,15.80
2013,05,05,03,34,15.80
2013,05,05,03,35,15.80
2013,05,05,03,36,15.70
2013,05,05,03,37,15.70
2013,05,05,03,38,15.70
2013,05,05,03,39,15.60
2013,05,05,03,40,15.60
2013,05,05,03,41,15.60
2013,05,05,03,42,15.60
2013,05,05,03,43,15.60
2013,05,05,03,44,15.60
2013,05,05,03,45,15.60
2013,05,05,03,46,15.70
2013,05,05,03,47,15.70
2013,05,05,03,48,15.70
2013,05,05,03,49,15.70
2013,05,05,03,50,15.80
2013,05,05,03,51,15.80
2013,05,05,03,52,15.80
2013,05,05,03,53,15.80
2013,05,05,03,54,15.80
2013,05,05,03,55,15.80
2013,05,05,03,56,15.80
2013,05,05,03,57,15.80
2013,05,05,03,58,15.80
2013,05,05,03,59,15.80
2013,05,05,04,00,15.80
2013,05,05,04,01,15.80
2013,05,05,04,02,15.80
2013,05,05,04,03,15.80
2013,05,05,04,04,15.70
2013,05,05,04,05,15.70
2013,05,05,04,06,15.70
2013,05,05,04,07,15.70
2013,05,05,04,08,15.70
2013,05,05,04,09,15.70
2013,05,05,04,10,15.60
2013,05,05,04,11,15.60
2013,05,05,04,12,15.60
2013,05,05,04,13,15.60
2013,05,05,04,14,15.60
2013,05,05,04,15,15.60
2013,05,05,04,16,15.60
2013,05,05,04,17,15.60
2013,05,05,04,18,15.60
2013,05,05,04,19,15.60
2013,05,05,04,20,15.50
2013,05,05,04,21,15.50
2013,05,05,04,22,15.50
2013,05,05,04,23,15.50
2013,05,05,04,24,15.50
2013,05,05,04,25,15.50
2013,05,05,04,26,15.50
2013,05,05,04,27,15.50
2013,05,05,04,28,15.50
2013,05,05,04,29,15.40
2013,05,05,04,30,15.40
2013,05,05,04,31,15.40
2013,05,05,04,32,15.40
2013,05,05,04,33,15.40
2013,05,05,04,34,15.30
2013,05,05,04,35,15.30
2013,05,05,04,36,15.30
2013,05,05,04,37,15.30
2013,05,05,04,38,15.30
2013,05,05,04,39,15.30
2013,05,05,04,40,15.20
2013,05,05,04,41,15.20
2013,05,05,04,42,15.20
2013,05,05,04,43,15.20
2013,05,05,04,44,15.10
2013,05,05,04,45,15.10
2013,05,05,04,46,15.10
2013,05,05,04,47,15.00
2013,05,05,04,48,15.00
2013,05,05,04,49,15.00
2013,05,05,04,50,15.00
2013,05,05,04,51,15.00
2013,05,05,04,52,15.00
2013,05,05,04,53,15.00
2013,05,05,04,54,15.00
2013,05,05,04,55,15.00
2013,05,05,04,56,15.00
2013,05,05,04,57,15.00
2013,05,05,04,58,15.00
2013,05,05,04,59,15.00
2013,05,05,05,00,15.00
2013,05,05,05,01,14.90
2013,05,05,05,02,14.90
2013,05,05,05,03,14.90
2013,05,05,05,04,14.90
2013,05,05,05,05,14.90
2013,05,05,05,06,14.90
2013,05,05,05,07,14.90
2013,05,05,05,08,14.90
2013,05,05,05,09,14.90
2013,05,05,05,10,14.90
2013,05,05,05,11,14.90
2013,05,05,05,12,14.90
2013,05,05,05,13,14.90
2013,05,05,05,14,14.90
2013,05,05,05,15,14.90
2013,05,05,05,16,14.90
2013,05,05,05,17,14.90
2013,05,05,05,18,14.80
2013,05,05,05,19,14.80
2013,05,05,05,20,14.80
2013,05,05,05,21,14.80
2013,05,05,05,22,14.70
2013,05,05,05,23,14.70
2013,05,05,05,24,14.70
2013,05,05,05,25,14.70
2013,05,05,05,26,14.60
2013,05,05,05,27,14.50
2013,05,05,05,28,14.50
2013,05,05,05,29,14.40
2013,05,05,05,30,14.40
2013,05,05,05,31,14.30
2013,05,05,05,32,14.30
2013,05,05,05,33,14.20
2013,05,05,05,34,14.10
2013,05,05,05,35,14.10
2013,05,05,05,36,14.00
2013,05,05,05,37,13.90
2013,05,05,05,38,13.90
2013,05,05,05,39,13.80
2013,05,05,05,40,13.70
2013,05,05,05,41,13.70
2013,05,05,05,42,13.70
2013,05,05,05,43,13.60
2013,05,05,05,44,13.60
2013,05,05,05,45,13.60
2013,05,05,05,46,13.50
2013,05,05,05,47,13.50
2013,05,05,05,48,13.50
2013,05,05,05,49,13.40
2013,05,05,05,50,13.40
2013,05,05,05,51,13.40
2013,05,05,05,52,13.30
2013,05,05,05,53,13.30
2013,05,05,05,54,13.30
2013,05,05,05,55,13.30
2013,05,05,05,56,13.30
2013,05,05,05,57,13.30
2013,05,05,05,58,13.30
2013,05,05,05,59,13.30
2013,05,05,06,00,13.30
2013,05,05,06,01,13.30
2013,05,05,06,02,13.30
2013,05,05,06,03,13.30
2013,05,05,06,04,13.30
2013,05,05,06,05,13.30
2013,05,05,06,06,13.30
2013,05,05,06,07,13.30
2013,05,05,06,08,13.40
2013,05,05,06,09,13.40
2013,05,05,06,10,13.50
2013,05,05,06,11,13.50
2013,05,05,06,12,13.60
2013,05,05,06,13,13.60
2013,05,05,06,14,13.60
2013,05,05,06,15,13.70
2013,05,05,06,16,13.70
2013,05,05,06,17,13.70
2013,05,05,06,18,13.60
2013,05,05,06,19,13.60
2013,05,05,06,20,13.60
2013,05,05,06,21,13.60
2013,05,05,06,22,13.60
2013,05,05,06,23,13.70
2013,05,05,06,24,13.70
2013,05,05,06,25,13.80
2013,05,05,06,26,13.90
2013,05,05,06,27,13.90
2013,05,05,06,28,14.10
2013,05,05,06,29,14.20
2013,05,05,06,30,14.30
2013,05,05,06,31,14.40
2013,05,05,06,32,14.50
2013,05,05,06,33,14.50
2013,05,05,06,34,14.60
2013,05,05,06,35,14.60
2013,05,05,06,36,14.70
2013,05,05,06,37,14.80
2013,05,05,06,38,14.80
2013,05,05,06,39,14.90
2013,05,05,06,40,14.90
2013,05,05,06,41,14.90
2013,05,05,06,42,14.90
2013,05,05,06,43,15.00
2013,05,05,06,44,14.90
2013,05,05,06,45,14.90
2013,05,05,06,46,14.90
2013,05,05,06,47,14.90
2013,05,05,06,48,14.90
2013,05,05,06,49,14.90
2013,05,05,06,50,14.80
2013,05,05,06,51,14.80
2013,05,05,06,52,14.80
2013,05,05,06,53,14.80
2013,05,05,06,54,14.80
2013,05,05,06,55,14.80
2013,05,05,06,56,14.80
2013,05,05,06,57,15.00
2013,05,05,06,58,15.10
2013,05,05,06,59,15.20
2013,05,05,07,00,15.30
2013,05,05,07,01,15.40
2013,05,05,07,02,15.50
2013,05,05,07,03,15.60
2013,05,05,07,04,15.70
2013,05,05,07,05,15.80
2013,05,05,07,06,15.90
2013,05,05,07,07,16.00
2013,05,05,07,08,16.10
2013,05,05,07,09,16.10
2013,05,05,07,10,16.20
2013,05,05,07,11,16.30
2013,05,05,07,12,16.40
2013,05,05,07,13,16.40
2013,05,05,07,14,16.50
2013,05,05,07,15,16.60
2013,05,05,07,16,16.70
2013,05,05,07,17,16.70
2013,05,05,07,18,16.80
2013,05,05,07,19,16.90
2013,05,05,07,20,17.00
2013,05,05,07,21,17.10
2013,05,05,07,22,17.20
2013,05,05,07,23,17.30
2013,05,05,07,24,17.30
2013,05,05,07,25,17.30
2013,05,05,07,26,17.30
2013,05,05,07,27,17.30
2013,05,05,07,28,17.30
2013,05,05,07,29,17.30
2013,05,05,07,30,17.20
2013,05,05,07,31,17.10
2013,05,05,07,32,17.00
2013,05,05,07,33,16.90
2013,05,05,07,34,16.80
2013,05,05,07,35,16.90
2013,05,05,07,36,16.90
2013,05,05,07,37,16.90
2013,05,05,07,38,16.90
2013,05,05,07,39,16.90
2013,05,05,07,40,17.00
2013,05,05,07,41,17.10
2013,05,05,07,42,17.20
2013,05,05,07,43,17.30
2013,05,05,07,44,17.30
2013,05,05,07,45,17.40
2013,05,05,07,46,17.50
2013,05,05,07,47,17.50
2013,05,05,07,48,17.60
2013,05,05,07,49,17.70
2013,05,05,07,50,17.70
2013,05,05,07,51,17.70
2013,05,05,07,52,17.70
2013,05,05,07,53,17.70
2013,05,05,07,54,17.70
2013,05,05,07,55,17.80
2013,05,05,07,56,17.80
2013,05,05,07,57,17.90
2013,05,05,07,58,17.90
2013,05,05,07,59,17.90
2013,05,05,08,00,18.00
2013,05,05,08,01,18.10
2013,05,05,08,02,18.20
2013,05,05,08,03,18.20
2013,05,05,08,04,18.20
2013,05,05,08,05,18.20
2013,05,05,08,06,18.20
2013,05,05,08,07,18.20
2013,05,05,08,08,18.20
2013,05,05,08,09,18.20
2013,05,05,08,10,18.20
2013,05,05,08,11,18.20
2013,05,05,08,12,18.10
2013,05,05,08,13,18.10
2013,05,05,08,14,18.00
2013,05,05,08,15,17.90
2013,05,05,08,16,17.90
2013,05,05,08,17,18.00
2013,05,05,08,18,18.00
2013,05,05,08,19,17.90
2013,05,05,08,20,18.10
2013,05,05,08,21,18.10
2013,05,05,08,22,18.20
2013,05,05,08,23,18.20
2013,05,05,08,24,18.20
2013,05,05,08,25,18.20
2013,05,05,08,26,18.30
2013,05,05,08,27,18.30
2013,05,05,08,28,18.30
2013,05,05,08,29,18.30
2013,05,05,08,30,18.30
2013,05,05,08,31,18.20
2013,05,05,08,32,18.20
2013,05,05,08,33,18.20
2013,05,05,08,34,18.00
2013,05,05,08,35,17.90
2013,05,05,08,36,17.90
2013,05,05,08,37,17.90
2013,05,05,08,38,17.90
2013,05,05,08,39,17.90
2013,05,05,08,40,18.00
2013,05,05,08,41,18.00
2013,05,05,08,42,17.90
2013,05,05,08,43,17.90
2013,05,05,08,44,17.90
2013,05,05,08,45,17.90
2013,05,05,08,46,17.90
2013,05,05,08,47,17.90
2013,05,05,08,48,18.10
2013,05,05,08,49,18.10
2013,05,05,08,50,18.10
2013,05,05,08,51,18.20
2013,05,05,08,52,18.20
2013,05,05,08,53,18.20
2013,05,05,08,54,18.20
2013,05,05,08,55,18.30
2013,05,05,08,56,18.40
2013,05,05,08,57,18.40
2013,05,05,08,58,18.50
2013,05,05,08,59,18.50
2013,05,05,09,00,18.60
2013,05,05,09,01,18.70
2013,05,05,09,02,18.70
2013,05,05,09,03,18.70
2013,05,05,09,04,18.60
2013,05,05,09,05,18.60
2013,05,05,09,06,18.60
2013,05,05,09,07,18.60
2013,05,05,09,08,18.60
2013,05,05,09,09,18.70
2013,05,05,09,10,18.80
2013,05,05,09,11,18.90
2013,05,05,09,12,18.90
2013,05,05,09,13,18.90
2013,05,05,09,14,19.00
2013,05,05,09,15,19.10
2013,05,05,09,16,19.10
2013,05,05,09,17,19.10
2013,05,05,09,18,19.10
2013,05,05,09,19,19.00
2013,05,05,09,20,18.90
2013,05,05,09,21,18.90
2013,05,05,09,22,18.90
2013,05,05,09,23,18.90
2013,05,05,09,24,18.90
2013,05,05,09,25,18.90
2013,05,05,09,26,18.90
2013,05,05,09,27,18.90
2013,05,05,09,28,19.00
2013,05,05,09,29,19.10
2013,05,05,09,30,19.10
2013,05,05,09,31,19.10
2013,05,05,09,32,19.20
2013,05,05,09,33,19.20
2013,05,05,09,34,19.20
2013,05,05,09,35,19.20
2013,05,05,09,36,19.20
2013,05,05,09,37,19.30
2013,05,05,09,38,19.30
2013,05,05,09,39,19.30
2013,05,05,09,40,19.40
2013,05,05,09,41,19.60
2013,05,05,09,42,19.60
2013,05,05,09,43,19.60
2013,05,05,09,44,19.60
2013,05,05,09,45,19.60
2013,05,05,09,46,19.60
2013,05,05,09,47,19.60
2013,05,05,09,48,19.70
2013,05,05,09,49,19.80
2013,05,05,09,50,19.90
2013,05,05,09,51,19.90
2013,05,05,09,52,20.00
2013,05,05,09,53,20.10
2013,05,05,09,54,20.10
2013,05,05,09,55,20.20
2013,05,05,09,56,20.20
2013,05,05,09,57,20.20
2013,05,05,09,58,20.10
2013,05,05,09,59,20.10
2013,05,05,10,00,20.10
2013,05,05,10,01,20.20
2013,05,05,10,02,20.20
2013,05,05,10,03,20.20
2013,05,05,10,04,20.20
2013,05,05,10,05,20.20
2013,05,05,10,06,20.30
2013,05,05,10,07,20.40
2013,05,05,10,08,20.50
2013,05,05,10,09,20.50
2013,05,05,10,10,20.50
2013,05,05,10,11,20.50
2013,05,05,10,12,20.50
2013,05,05,10,13,20.50
2013,05,05,10,14,20.50
2013,05,05,10,15,20.50
2013,05,05,10,16,20.50
2013,05,05,10,17,20.50
2013,05,05,10,18,20.50
2013,05,05,10,19,20.60
2013,05,05,10,20,20.70
2013,05,05,10,21,20.80
2013,05,05,10,22,20.90
2013,05,05,10,23,21.00
2013,05,05,10,24,21.10
2013,05,05,10,25,21.10
2013,05,05,10,26,21.10
2013,05,05,10,27,21.20
2013,05,05,10,28,21.30
2013,05,05,10,29,21.30
2013,05,05,10,30,21.40
2013,05,05,10,31,21.40
2013,05,05,10,32,21.50
2013,05,05,10,33,21.60
2013,05,05,10,34,21.50
2013,05,05,10,35,21.40
2013,05,05,10,36,21.40
2013,05,05,10,37,21.40
2013,05,05,10,38,21.40
2013,05,05,10,39,21.30
2013,05,05,10,40,21.30
2013,05,05,10,41,21.20
2013,05,05,10,42,21.20
2013,05,05,10,43,21.20
2013,05,05,10,44,21.20
2013,05,05,10,45,21.20
2013,05,05,10,46,21.20
2013,05,05,10,47,21.20
2013,05,05,10,48,21.20
2013,05,05,10,49,21.20
2013,05,05,10,50,21.20
2013,05,05,10,51,21.20
2013,05,05,10,52,21.30
2013,05,05,10,53,21.30
2013,05,05,10,54,21.30
2013,05,05,10,55,21.30
2013,05,05,10,56,21.30
2013,05,05,10,57,21.40
2013,05,05,10,58,21.40
2013,05,05,10,59,21.60
2013,05,05,11,00,21.60
2013,05,05,11,01,21.60
2013,05,05,11,02,21.70
2013,05,05,11,03,21.70
2013,05,05,11,04,21.70
2013,05,05,11,05,21.80
2013,05,05,11,06,21.80
2013,05,05,11,07,21.80
2013,05,05,11,08,21.80
2013,05,05,11,09,21.80
2013,05,05,11,10,21.80
2013,05,05,11,11,21.80
2013,05,05,11,12,21.70
2013,05,05,11,13,21.70
2013,05,05,11,14,21.80
2013,05,05,11,15,21.80
2013,05,05,11,16,21.90
2013,05,05,11,17,21.90
2013,05,05,11,18,22.00
2013,05,05,11,19,22.10
2013,05,05,11,20,22.20
2013,05,05,11,21,22.30
2013,05,05,11,22,22.20
2013,05,05,11,23,22.20
2013,05,05,11,24,22.10
2013,05,05,11,25,22.10
2013,05,05,11,26,22.10
2013,05,05,11,27,22.10
2013,05,05,11,28,22.10
2013,05,05,11,29,22.10
2013,05,05,11,30,22.20
2013,05,05,11,31,22.20
2013,05,05,11,32,22.20
2013,05,05,11,33,22.20
2013,05,05,11,34,22.20
2013,05,05,11,35,22.20
2013,05,05,11,36,22.20
2013,05,05,11,37,22.20
2013,05,05,11,38,22.30
2013,05,05,11,39,22.30
2013,05,05,11,40,22.30
2013,05,05,11,41,22.30
2013,05,05,11,42,22.30
2013,05,05,11,43,22.30
2013,05,05,11,44,22.40
2013,05,05,11,45,22.30
2013,05,05,11,46,22.30
2013,05,05,11,47,22.20
2013,05,05,11,48,22.10
2013,05,05,11,49,22.10
2013,05,05,11,50,22.10
2013,05,05,11,51,22.20
2013,05,05,11,52,22.20
2013,05,05,11,53,22.30
2013,05,05,11,54,22.40
2013,05,05,11,55,22.50
2013,05,05,11,56,22.50
2013,05,05,11,57,22.50
2013,05,05,11,58,22.50
2013,05,05,11,59,22.60
2013,05,05,12,00,22.50
2013,05,05,12,01,22.50
2013,05,05,12,02,22.50
2013,05,05,12,03,22.50
2013,05,05,12,04,22.50
2013,05,05,12,05,22.60
2013,05,05,12,06,22.60
2013,05,05,12,07,22.60
2013,05,05,12,08,22.60
2013,05,05,12,09,22.50
2013,05,05,12,10,22.50
2013,05,05,12,11,22.50
2013,05,05,12,12,22.50
2013,05,05,12,13,22.50
2013,05,05,12,14,22.60
2013,05,05,12,15,22.70
2013,05,05,12,16,22.80
2013,05,05,12,17,22.90
2013,05,05,12,18,23.00
2013,05,05,12,19,23.10
2013,05,05,12,20,23.10
2013,05,05,12,21,23.10
2013,05,05,12,22,23.10
2013,05,05,12,23,23.10
2013,05,05,12,24,23.10
2013,05,05,12,25,23.10
2013,05,05,12,26,23.20
2013,05,05,12,27,23.30
2013,05,05,12,28,23.30
2013,05,05,12,29,23.30
2013,05,05,12,30,23.30
2013,05,05,12,31,23.30
2013,05,05,12,32,23.30
2013,05,05,12,33,23.40
2013,05,05,12,34,23.40
2013,05,05,12,35,23.40
2013,05,05,12,36,23.40
2013,05,05,12,37,23.50
2013,05,05,12,38,23.60
2013,05,05,12,39,23.60
2013,05,05,12,40,23.70
2013,05,05,12,41,23.70
2013,05,05,12,42,23.70
2013,05,05,12,43,23.70
2013,05,05,12,44,23.70
2013,05,05,12,45,23.80
2013,05,05,12,46,23.80
2013,05,05,12,47,23.70
2013,05,05,12,48,23.70
2013,05,05,12,49,23.60
2013,05,05,12,50,23.60
2013,05,05,12,51,23.60
2013,05,05,12,52,23.50
2013,05,05,12,53,23.40
2013,05,05,12,54,23.40
2013,05,05,12,55,23.40
2013,05,05,12,56,23.40
2013,05,05,12,57,23.40
2013,05,05,12,58,23.40
2013,05,05,12,59,23.50
2013,05,05,13,00,23.60
2013,05,05,13,01,23.70
2013,05,05,13,02,23.70
2013,05,05,13,03,23.70
2013,05,05,13,04,23.80
2013,05,05,13,05,23.80
2013,05,05,13,06,23.90
2013,05,05,13,07,23.90
2013,05,05,13,08,24.10
2013,05,05,13,09,24.10
2013,05,05,13,10,24.10
2013,05,05,13,11,24.20
2013,05,05,13,12,24.30
2013,05,05,13,13,24.30
2013,05,05,13,14,24.20
2013,05,05,13,15,24.20
2013,05,05,13,16,24.20
2013,05,05,13,17,24.20
2013,05,05,13,18,24.20
2013,05,05,13,19,24.30
2013,05,05,13,20,24.30
2013,05,05,13,21,24.40
2013,05,05,13,22,24.40
2013,05,05,13,23,24.40
2013,05,05,13,24,24.40
2013,05,05,13,25,24.40
2013,05,05,13,26,24.50
2013,05,05,13,27,24.50
2013,05,05,13,28,24.60
2013,05,05,13,29,24.70
2013,05,05,13,30,24.70
2013,05,05,13,31,24.80
2013,05,05,13,32,24.80
2013,05,05,13,33,24.80
2013,05,05,13,34,24.80
2013,05,05,13,35,24.80
2013,05,05,13,36,24.80
2013,05,05,13,37,24.80
2013,05,05,13,38,24.80
2013,05,05,13,39,24.80
2013,05,05,13,40,24.80
2013,05,05,13,41,24.80
2013,05,05,13,42,24.80
2013,05,05,13,43,24.90
2013,05,05,13,44,24.90
2013,05,05,13,45,25.00
2013,05,05,13,46,25.20
2013,05,05,13,47,25.20
2013,05,05,13,48,25.20
2013,05,05,13,49,25.30
2013,05,05,13,50,25.30
2013,05,05,13,51,25.30
2013,05,05,13,52,25.30
2013,05,05,13,53,25.30
2013,05,05,13,54,25.40
2013,05,05,13,55,25.40
2013,05,05,13,56,25.40
2013,05,05,13,57,25.40
2013,05,05,13,58,25.40
2013,05,05,13,59,25.40
2013,05,05,14,00,25.40
2013,05,05,14,01,25.40
2013,05,05,14,02,25.40
2013,05,05,14,03,25.40
2013,05,05,14,04,25.50
2013,05,05,14,05,25.50
2013,05,05,14,06,25.50
2013,05,05,14,07,25.50
2013,05,05,14,08,25.50
2013,05,05,14,09,25.60
2013,05,05,14,10,25.60
2013,05,05,14,11,25.60
2013,05,05,14,12,25.60
2013,05,05,14,13,25.60
2013,05,05,14,14,25.60
2013,05,05,14,15,25.50
2013,05,05,14,16,25.50
2013,05,05,14,17,25.60
2013,05,05,14,18,25.60
2013,05,05,14,19,25.60
2013,05,05,14,20,25.60
2013,05,05,14,21,25.60
2013,05,05,14,22,25.60
2013,05,05,14,23,25.60
2013,05,05,14,24,25.60
2013,05,05,14,25,25.70
2013,05,05,14,26,25.80
2013,05,05,14,27,25.80
2013,05,05,14,28,25.90
2013,05,05,14,29,25.90
2013,05,05,14,30,25.90
2013,05,05,14,31,26.00
2013,05,05,14,32,26.10
2013,05,05,14,33,26.20
2013,05,05,14,34,26.30
2013,05,05,14,35,26.30
2013,05,05,14,36,26.20
2013,05,05,14,37,26.00
2013,05,05,14,38,26.00
2013,05,05,14,39,26.00
2013,05,05,14,40,26.10
2013,05,05,14,41,26.10
2013,05,05,14,42,26.10
2013,05,05,14,43,26.20
2013,05,05,14,44,26.20
2013,05,05,14,45,26.20
2013,05,05,14,46,26.20
2013,05,05,14,47,26.20
2013,05,05,14,48,26.30
2013,05,05,14,49,26.30
2013,05,05,14,50,26.30
2013,05,05,14,51,26.40
2013,05,05,14,52,26.40
2013,05,05,14,53,26.30
2013,05,05,14,54,26.10
2013,05,05,14,55,26.00
2013,05,05,14,56,25.90
2013,05,05,14,57,25.90
2013,05,05,14,58,25.90
2013,05,05,14,59,26.00
2013,05,05,15,00,26.10
2013,05,05,15,01,26.10
2013,05,05,15,02,26.10
2013,05,05,15,03,26.20
2013,05,05,15,04,26.30
2013,05,05,15,05,26.40
2013,05,05,15,06,26.60
2013,05,05,15,07,26.70
2013,05,05,15,08,26.90
2013,05,05,15,09,27.00
2013,05,05,15,10,27.10
2013,05,05,15,11,27.10
2013,05,05,15,12,27.20
2013,05,05,15,13,27.10
2013,05,05,15,14,27.00
2013,05,05,15,15,26.80
2013,05,05,15,16,26.80
2013,05,05,15,17,26.80
2013,05,05,15,18,26.80
2013,05,05,15,19,26.80
2013,05,05,15,20,26.80
2013,05,05,15,21,26.90
2013,05,05,15,22,26.90
2013,05,05,15,23,27.00
2013,05,05,15,24,27.10
2013,05,05,15,25,27.20
2013,05,05,15,26,27.20
2013,05,05,15,27,27.30
2013,05,05,15,28,27.30
2013,05,05,15,29,27.30
2013,05,05,15,30,27.30
2013,05,05,15,31,27.30
2013,05,05,15,32,27.30
2013,05,05,15,33,27.30
2013,05,05,15,34,27.40
2013,05,05,15,35,27.40
2013,05,05,15,36,27.40
2013,05,05,15,37,27.40
2013,05,05,15,38,27.30
2013,05,05,15,39,27.30
2013,05,05,15,40,27.30
2013,05,05,15,41,27.30
2013,05,05,15,42,27.30
2013,05,05,15,43,27.30
2013,05,05,15,44,27.20
2013,05,05,15,45,27.00
2013,05,05,15,46,26.90
2013,05,05,15,47,26.80
2013,05,05,15,48,26.70
2013,05,05,15,49,26.60
2013,05,05,15,50,26.60
2013,05,05,15,51,26.50
2013,05,05,15,52,26.40
2013,05,05,15,53,26.30
2013,05,05,15,54,26.20
2013,05,05,15,55,26.10
2013,05,05,15,56,26.00
2013,05,05,15,57,25.90
2013,05,05,15,58,25.90
2013,05,05,15,59,26.00
2013,05,05,16,00,26.00
2013,05,05,16,01,26.00
2013,05,05,16,02,26.00
2013,05,05,16,03,26.10
2013,05,05,16,04,26.10
2013,05,05,16,05,26.10
2013,05,05,16,06,26.10
2013,05,05,16,07,26.20
2013,05,05,16,08,26.20
2013,05,05,16,09,26.10
2013,05,05,16,10,26.00
2013,05,05,16,11,25.90
2013,05,05,16,12,25.90
2013,05,05,16,13,25.90
2013,05,05,16,14,25.80
2013,05,05,16,15,25.80
2013,05,05,16,16,25.80
2013,05,05,16,17,25.80
2013,05,05,16,18,25.80
2013,05,05,16,19,25.70
2013,05,05,16,20,25.70
2013,05,05,16,21,25.50
2013,05,05,16,22,25.40
2013,05,05,16,23,25.30
2013,05,05,16,24,25.30
2013,05,05,16,25,25.30
2013,05,05,16,26,25.30
2013,05,05,16,27,25.40
2013,05,05,16,28,25.40
2013,05,05,16,29,25.60
2013,05,05,16,30,25.70
2013,05,05,16,31,25.90
2013,05,05,16,32,26.10
2013,05,05,16,33,26.30
2013,05,05,16,34,26.40
2013,05,05,16,35,26.60
2013,05,05,16,36,26.60
2013,05,05,16,37,26.50
2013,05,05,16,38,26.40
2013,05,05,16,39,26.40
2013,05,05,16,40,26.40
2013,05,05,16,41,26.40
2013,05,05,16,42,26.50
2013,05,05,16,43,26.50
2013,05,05,16,44,26.40
2013,05,05,16,45,26.40
2013,05,05,16,46,26.50
2013,05,05,16,47,26.60
2013,05,05,16,48,26.50
2013,05,05,16,49,26.30
2013,05,05,16,50,26.10
2013,05,05,16,51,25.90
2013,05,05,16,52,25.80
2013,05,05,16,53,25.70
2013,05,05,16,54,25.60
2013,05,05,16,55,25.60
2013,05,05,16,56,25.60
2013,05,05,16,57,25.60
2013,05,05,16,58,25.60
2013,05,05,16,59,25.60
2013,05,05,17,00,25.60
2013,05,05,17,01,25.70
2013,05,05,17,02,25.70
2013,05,05,17,03,25.70
2013,05,05,17,04,25.60
2013,05,05,17,05,25.50
2013,05,05,17,06,25.40
2013,05,05,17,07,25.40
2013,05,05,17,08,25.40
2013,05,05,17,09,25.40
2013,05,05,17,10,25.40
2013,05,05,17,11,25.50
2013,05,05,17,12,25.50
2013,05,05,17,13,25.60
2013,05,05,17,14,25.60
2013,05,05,17,15,25.70
2013,05,05,17,16,25.80
2013,05,05,17,17,25.90
2013,05,05,17,18,26.00
2013,05,05,17,19,26.10